Content
SEND FEEDBACK

Daily
Averages
Monthly
Summary
United States of America

ST. LOUIS, MISSOURI


Home > North America > United States > Missouri
Elevation: 163 meters     Latitude: 38 45N     Longitude: 090 22W

WEATHER
 
SELECT A DAY
Number of Records: 201,199;   Date Range: 1/1/95 - 12/17/14
 
SHARE

PRINT THIS DATA

[ ← Previous Day ]
WEATHER ALMANAC - 18 FEBRUARY, 2013
[ Next Day → ]
[ °F ]   °C
Weather ElementAverageHighLow
Temperature8.3 °C14.4 °C (10:54 am)0.6 °C (11:54 pm)
Dewpoint3.2 °C9 °C (6:10 pm)-5 °C (11:20 pm)
Humidity71.2 %88 % (6:10 pm)57 % (9:54 am)
Barometer1007.1 hPa1013.9 hPa (11:54 pm)1001 hPa (5:54 pm)
Wind Speed24.3 km/h44.4 km/h (7:20 pm)
Wind Gust57.5 km/h (7:20 pm)
Weather ElementAverage
Visibility14.8 km
Wind DirectionSW (222.8 °)

Weather ElementTotal
Precipitation6.1 mm
Heating Degree Days10.8 (Base 18.3)
Averaged from 29 records on 18 February, 2013
WEATHER CONDITIONS BREAKOUT
WIND DIRECTION BREAKOUT
WEATHER BY HOUR - 18 FEBRUARY, 2013
[ °F ]   °C
Local TimeTemperatureDewpointHumidityBarometerVisibilityWind DirectionWind SpeedGust SpeedPrecipitationEventsConditions
1:54 AM2.2 °C-1.7 °C76 %1011.9 hPa16.1 kmCalmClear
2:54 AM4.4 °C-1.1 °C68 %1010.8 hPa16.1 kmSouth (180°)5.6 km/hClear
3:54 AM7.8 °C0.6 °C61 %1010.2 hPa16.1 kmSouth (190°)14.8 km/hClear
4:54 AM7.8 °C1.1 °C63 %1009.5 hPa16.1 kmSSW (200°)13 km/hClear
5:54 AM7.8 °C1.7 °C66 %1009.5 hPa16.1 kmSouth (190°)11.1 km/h29.6 km/hClear
6:54 AM8.3 °C2.2 °C66 %1009.1 hPa16.1 kmSSW (200°)9.3 km/hMostly Cloudy
7:54 AM9.4 °C2.8 °C64 %1008.5 hPa16.1 kmSSW (200°)13 km/h27.8 km/hOvercast
8:54 AM12.2 °C4.4 °C59 %1008.5 hPa16.1 kmSouth (180°)13 km/h37 km/hMostly Cloudy
9:54 AM13.9 °C5.6 °C57 %1007.5 hPa16.1 kmSSW (210°)31.5 km/h53.8 km/hMostly Cloudy
10:54 AM14.4 °C6.1 °C58 %1007.1 hPa16.1 kmSouth (190°)31.5 km/h51.8 km/hMostly Cloudy
11:54 AM13.3 °C6.7 °C64 %1006.4 hPa16.1 kmSouth (190°)20.4 km/h50.1 km/hOvercast
12:08 PM13 °C7 °C67 %1006.1 hPa16.1 kmSSW (200°)31.5 km/h46.3 km/hOvercast
12:54 PM13.3 °C6.7 °C64 %1005.4 hPa16.1 kmSouth (190°)33.3 km/h51.8 km/hOvercast
1:54 PM12.8 °C6.7 °C67 %1004.1 hPa16.1 kmSouth (180°)20.4 km/h38.9 km/h0 mmRainLight Rain
2:54 PM12.8 °C6.7 °C67 %1002.4 hPa16.1 kmSouth (180°)20.4 km/h38.9 km/h0 mmOvercast
3:54 PM11.1 °C8.3 °C83 %1001.7 hPa6.4 kmSouth (180°)20.4 km/h33.3 km/h0.25 mmRainLight Rain
5:54 PM10.6 °C8.3 °C86 %1001 hPa9.7 kmSouth (180°)20.4 km/h31.5 km/h1.78 mmRainRain
6:03 PM11 °C8 °C82 %1001.7 hPa8 kmWSW (250°)29.6 km/h38.9 km/h0.25 mmRainLight Rain
6:10 PM11 °C9 °C88 %1002 hPa8 kmWest (260°)27.8 km/h0.76 mmRainLight Rain
6:19 PM11 °C8 °C82 %1002.7 hPa9.7 kmWest (280°)37 km/h50.1 km/h1.02 mmRainLight Rain
6:38 PM8 °C6 °C87 %1004.1 hPa16.1 kmWNW (290°)37 km/h50.1 km/h1.02 mmOvercast
6:54 PM6.1 °C3.3 °C82 %1005.1 hPa16.1 kmWNW (300°)37 km/h51.8 km/h1.02 mmOvercast
7:20 PM5 °C2 °C81 %1006.1 hPa16.1 kmNW (310°)44.4 km/h57.5 km/hOvercast
7:54 PM4.4 °C1.1 °C79 %1007.8 hPa16.1 kmWNW (300°)22.2 km/h38.9 km/hOvercast
8:54 PM4.4 °C0.6 °C77 %1008.8 hPa16.1 kmWNW (290°)42.6 km/h55.5 km/hOvercast
9:54 PM2.2 °C-2.8 °C70 %1011.2 hPa16.1 kmWNW (300°)37 km/h48.1 km/hOvercast
10:54 PM1.7 °C-3.3 °C70 %1012.5 hPa16.1 kmWest (280°)29.6 km/h48.1 km/hOvercast
11:20 PM1 °C-5 °C65 %1012.9 hPa16.1 kmWest (270°)33.3 km/h55.5 km/hOvercast
11:54 PM0.6 °C-5 °C66 %1013.9 hPa16.1 kmWNW (290°)16.7 km/h37 km/hMostly Cloudy
Hourly data recorded from KSUS, located 0 kilometers away from St. Louis, Missouri







STORIES FROM OUR PARTNERS